User: anonymous   Login
Location: Kirtland Hills
(41.6239°N, 81.3071°W)
Time: 12:42:00
(UTC+00:00)
Language:

Cosmos 1656 - Orbit

View from above orbital plane
View from above orbital plane
View from above satellite
View from above satellite

Ground track
Ground track

The orbit data is extracted from the following two-line orbital elements,

1 15755U 85042A   21019.58581087  .00000091  00000-0  63889-4 0  9995
2 15755  71.1126 118.1081 0035166 176.5641 183.5734 14.20459349846789
Epoch (UTC): 19 January 2021 14:03:34
Eccentricity: 0.0035166
inclination: 71.1126°
perigee height: 798 km
apogee height: 849 km
right ascension of ascending node: 118.1081°
argument of perigee: 176.5641°
revolutions per day: 14.20459349
mean anomaly at epoch: 183.5734°
orbit number at epoch: 84678

The dashed part of the orbit path shows where the satellite is in the earth's shadow,  

DLR